Chichilianne (38) - D

Date : 22/04/2012
Distance : 2330,000 km

Place Nom Licence Catégorie Club Temps min/km CN à J-60 Points Différence Nouveau CN
1 DROIN Solène 17925 D16 4201RA 0:26:12 0'00 4634 5647 +1013 5428
2 MOISSET Jacques 2328 H60 7403RA 0:27:05 0'00 4599 5463 +864 5232
3 DEVRIEUX Naïs 7672 D18 4203RA 0:27:45 0'00 5941 5332 -609 6283
4 MASCARELL Henri 8928 H60 6911RA 0:28:24 0'00 5673 5210 -463 5673
5 VIGIER Léo 22094 H14 4203RA 0:29:04 0'00 3194 5090 +1896 3944
6 BORNARD Nicolas 9403 H14 7305RA 0:29:49 0'00 3868 4962 +1094 4472
7 LELOUP Anouk 8108 D18 7305RA 0:29:55 0'00 0 4945 0
8 BODY Mathilde 10184 D16 7305RA 0:30:01 0'00 5413 4929 -484 5470
9 FERRAND Antonin 23465 H14 4203RA 0:30:31 0'00 3486 4848 +1362 3931
10 RIVOLLIER Isaline 22451 D16 4201RA 0:32:07 0'00 3898 4607 +709 4507
11 BERRARD Tom 19761 H14 2607RA 0:33:58 0'00 3663 4356 +693 4102
12 GHIBAUDO Simon 20917 H14 4203RA 0:34:17 0'00 3526 4316 +790 3704
13 DUDOIGNON Chloé 18089 D14 2605RA 0:35:39 0'00 3187 4150 +963 3870
14 BORNARD Julie 9402 D16 7305RA 0:36:25 0'00 4337 4063 -274 4813
15 RAGACHE Jean-Claude 7147 H60 3811RA 0:38:00 0'00 4618 3893 -725 4618
16 THIEVENAZ Roland 9230 H60 3811RA 0:38:06 0'00 4874 3883 -991 4874
17 SINIBALDI Marc 1347 H70 3801RA 0:38:30 0'00 4507 3843 -664 4015
18 FALGA Beatrice 12403 D16 6911RA 0:40:14 0'01 3768 3677 -91 3836
19 MOREAU Merlin 19584 H14 2605RA 0:40:31 0'01 2681 3652 +971 3233
20 GANDON J-Claude 249 H70 6906RA 0:40:54 0'01 4190 3617 -573 4163
21 BASSET Juliette 12398 D14 6911RA 0:41:08 0'01 3674 3597 -77 3754
22 ANNE Roger 1673 H60 0111RA 0:41:17 0'01 4262 3584 -678 4171
23 ROCHE Maxime 15418 H14 6911RA 0:41:22 0'01 2808 3577 +769 3236
24 COMBET Annie 813 D50 4203RA 0:41:57 0'01 4353 3527 -826 4475
25 DANJON J-Yves 8699 H60 6911RA 0:42:22 0'01 3492 3432
26 GENNARO Leslie 20863 D16 3811RA 0:46:18 0'01 2157 3196 +1039 2845
27 LEVESY Salomé 23127 D14 3810RA 0:49:11 0'01 2568 3008 +440 2735
28 PERMINGEAT Helene 21054 D55 2606RA 0:49:29 0'01 3222 2990 -232 3222
29 BERLAND Julien 24057 H14 3809RA 0:50:03 0'01 2871 2956 +85 2958
30 MOISSET Nicole 2329 D55 7403RA 0:53:49 0'01 3360 2749 -611 3025
31 MASLIAH Raphaël 26389 H14 2610RA 0:55:04 0'01 2687 2580
32 PITAVAL Sylvie 12060 D50 4201RA 0:55:21 0'01 3820 2673 -1147 3845
33 XIMENEZ Michel 21360 H45 3801RA 0:55:27 0'01 2989 2668 -321 3007
34 ANNE Brigitte 1672 D60 0111RA 0:57:23 0'01 3257 2578 -679 3106
35 HABAUZIT Killian 23667 H14 2606RA 0:58:10 0'01 1765 2544 +779 1946
36 DESCOURVIERES Perrine 25550 D16 7407RA 1:00:25 0'01 2449 2090
37 CARBONNEAUX Théo 26415 H14 2610RA 1:00:46 0'01 2435 2338
38 BOUILLET Geneviève 8944 D60 3811RA 1:02:45 0'01 2282 2358 +76 2365
39 VILLEDIEU Martine 13752 D55 6913RA 1:03:24 0'01 3873 2334 -1539 3847
40 LENFANT Chantal 10264 D55 3811RA 1:03:39 0'01 3092 2324 -768 3092
41 GROSJEAN A-Marie 12059 D70 6913RA 1:03:59 0'01 2838 2312 -526 2838
42 JUILLAN Martine 9988 D14 3801RA 1:05:27 0'01 1389 2261 +872 1343
43 GIGON-VELUZAT Laurence 11316 D50 3809RA 1:07:22 0'01 2983 2196 -787 2578
44 PERREARD-GARIN Soraya 25343 D14 7407RA 1:08:02 0'01 1601 2175 +574 2027
45 LEBRUN Valérie 25215 D35 3810RA 1:08:48 0'01 0 2150 1958
46 ROCHAT Jodie 26125 D16 7407RA 1:08:58 0'01 2145 2000
47 LAURENT ELODIE 24671 D14 2606RA 1:10:05 0'01 1802 2111 +309 2217
48 GARON Perrine 21097 D14 2607RA 1:11:32 0'01 1623 2068 +445 1923
49 RYCKEBOER Alizé 20146 D14 8319AZ 1:11:43 0'01 2092 2063 -29 2272
50 ROMEY Emilie 26017 D21 3801RA 1:14:27 0'01 1987 1947
51 FINO Béatrice 1674 D40 0111RA 1:20:01 0'02 2538 1849 -689 2445
52 CATMUR virginia 25103 D55 0503PR 1:23:29 0'02 0 1772 1666
53 CHAREYRE Régis 25321 H14 2607RA 1:24:31 0'02 1751 1681
54 BENOIT Nathalie 18122 D35 2607RA 1:25:44 0'02 2048 1726 -322 2390
55 THIEVENAZ Francoise 19672 D60 3811RA 1:29:39 0'02 0 1650 1617
56 VORWERK Marine 25746 D14 4201RA 1:39:10 0'02 1492 1488
57 ANTOINE Brigitte 1271 D60 2605RA 1:53:43 0'02 0 1301 0
58 VORWERK Camille 25747 D14 4201RA 1:55:20 0'02 1283 1232
HELIOT Claude 2349 H70 6906RA pm None 3772 0 3108
ROBERT Francoise 6491 D60 6913RA pm None 4524 0 4475
BRUSSEY Marius 26257 H14 2606RA pm None 0 0
PERRON Lucas 20601 H14 3809RA pm None 915 0 993